This demonstration page uses our WeatherBlox Daily Observations layout. Learn more.

Left ArrowRight Arrow

Hourly Observations for October 12, 2020

Temp ( °F °C ) Dew Point ( °F °C ) Humidity (%) Winds ( mph kmh ) Pressure ( in mb ) Visibility ( mi km ) Precip ( " mm )
12:53 am 00:53 Cloudy 52 11.1 42 5.6 69 69 NNW 16 26 29.86 1011 10 16 0.00 0.00
1:53 am 01:53 Mostly Clear 51 10.6 42 5.6 71 71 NNW 9 15 29.87 1012 10 16 0.00 0.00
2:53 am 02:53 Clear 44 6.7 39 3.9 83 83 WNW 6 9 29.91 1013 10 16 0.00 0.00
3:53 am 03:53 Clear 44 6.7 38 3.3 79 79 W 7 11 29.92 1013 10 16 0.00 0.00
4:53 am 04:53 Clear 45 7.2 37 2.8 74 74 WNW 14 22 29.93 1014 10 16 0.00 0.00
5:53 am 05:53 Clear 43 6.1 36 2.2 76 76 WNW 10 17 29.95 1014 10 16 0.00 0.00
6:53 am 06:53 Clear 43 6.1 35 1.7 74 74 WNW 10 17 29.98 1015 10 16 0.00 0.00
7:53 am 07:53 Sunny 42 5.6 34 1.1 73 73 WNW 10 17 30.01 1016 10 16 0.00 0.00
8:53 am 08:53 Sunny 45 7.2 35 1.7 68 68 W 10 17 30.05 1018 10 16 0.00 0.00
9:53 am 09:53 Sunny 50 10 37 2.8 61 61 W 10 17 30.06 1018 10 16 0.00 0.00
10:53 am 10:53 Sunny 56 13.3 38 3.3 51 51 W 7 11 30.06 1018 10 16 0.00 0.00
11:53 am 11:53 Sunny 62 16.7 35 1.7 37 37 WSW 7 11 30.04 1017 10 16 0.00 0.00
12:53 pm 12:53 Sunny 66 18.9 30 -1.1 26 26 WSW 8 13 30.01 1016 10 16 0.00 0.00
1:53 pm 13:53 Sunny 69 20.6 27 -2.8 21 21 SW 12 19 29.97 1015 10 16 0.00 0.00
2:53 pm 14:53 Sunny 70 21.1 27 -2.8 20 20 WSW 13 20 29.94 1014 10 16 0.00 0.00
3:53 pm 15:53 Sunny 73 22.8 29 -1.7 19 19 SSW 16 26 29.91 1013 10 16 0.00 0.00
4:53 pm 16:53 Sunny 74 23.3 27 -2.8 17 17 WSW 15 24 29.89 1012 10 16 0.00 0.00
5:53 pm 17:53 Sunny 74 23.3 27 -2.8 17 17 WSW 12 19 29.87 1012 10 16 0.00 0.00
6:53 pm 18:53 Sunny 69 20.6 28 -2.2 22 22 S 6 9 29.86 1011 10 16 0.00 0.00
7:53 pm 19:53 Clear 62 16.7 28 -2.2 28 28 S 8 13 29.88 1012 10 16 0.00 0.00
8:53 pm 20:53 Clear 61 16.1 28 -2.2 29 29 S 9 15 29.89 1012 10 16 0.00 0.00
9:53 pm 21:53 Clear 59 15 28 -2.2 31 31 S 8 13 29.89 1012 10 16 0.00 0.00
10:53 pm 22:53 Clear 57 13.9 29 -1.7 34 34 S 10 17 29.89 1012 10 16 0.00 0.00
11:53 pm 23:53 Clear 55 12.8 29 -1.7 37 37 S 9 15 29.88 1012 10 16 0.00 0.00

Powered by AerisWeather